User: anonymous   Login
Location: Mentone
(34.5413°N, 85.5351°W)
Time: 19:32:34
(UTC-05:00)
Language:

UOSAT-12 - Orbit

View from above orbital plane
View from above orbital plane
View from above satellite
View from above satellite

Ground track
Ground track

The orbit data is extracted from the following two-line orbital elements,

1 25693U 99021A   17085.85959586 -.00000046 +00000-0 +12943-4 0  9996
2 25693 064.5575 019.4147 0027304 320.2099 039.7003 14.80722163967970
Epoch (UTC): 26 March 2017 20:37:49
Eccentricity: 0.0027304
inclination: 64.5575°
perigee height: 608 km
apogee height: 646 km
right ascension of ascending node: 19.4147°
argument of perigee: 320.2099°
revolutions per day: 14.80722163
mean anomaly at epoch: 39.7003°
orbit number at epoch: 96797

The dashed part of the orbit path shows where the satellite is in the earth's shadow,  

DLR